Regional Weather Roundup
Issued by NWS

Home | Current Version | Previous Version | Graphics & Text | Print | Product List | Glossary On
Versions: 1 2 3 4 5 6 7 8 9 10 11 12 13 14 15 16 17 18 19 20 21 22 23 24 25 26 27 28 29 30 31 32 33 34 35 36 37 38 39 40 41 42 43 44 45 46 47 48 49 50
003
ASUS43 KMKX 260221
RWRWI

WISCONSIN REGIONAL WEATHER ROUNDUP
NATIONAL WEATHER SERVICE MILWAUKEE/SULLIVAN WI
900 PM CDT SUN JUN 25 2017

NOTE: "FAIR" INDICATES FEW OR NO CLOUDS BELOW 12,000 FEET WITH NO
SIGNIFICANT WEATHER AND/OR OBSTRUCTIONS TO VISIBILITY.

WIZ001-002-006>008-014>016-023>028-260300-
NORTHWEST WISCONSIN

CITY           SKY/WX    TMP DP  RH WIND       PRES   REMARKS
SUPERIOR ARPT  NOT AVBL
ASHLAND        CLOUDY    53  46  77 NW8       30.07S
HAYWARD        CLEAR     53  46  77 CALM      30.09S
SIREN          CLEAR     54  44  67 CALM      30.11S
CUMBERLAND     PTCLDY    52  46  82 NW3       30.10F
RICE LAKE      CLEAR     55  46  73 CALM      30.12S
CHETEK         PTCLDY    54  47  79 N3        30.10F
LADYSMITH      MOCLDY    55  49  82 W6        30.10F
EAU CLAIRE     CLEAR     53  50  89 NW5       30.10S
MENOMONIE      PTCLDY    57  49  76 N5        30.11S
NEW RICHMOND   PTCLDY    58  43  56 NW3       30.12R
OSCEOLA        PTCLDY    59  43  54 N3        30.14S
$$

WIZ003>005-009-010-017-018-260300-
NORTH CENTRAL WISCONSIN

CITY           SKY/WX    TMP DP  RH WIND       PRES   REMARKS
MANITOWISH WTR MOCLDY    47  47 100 W6        30.05S
ARBOR VITAE    PTCLDY    52  49  91 NW7       30.04F
WOODRUFF       PTCLDY    52  49  91 NW7       30.04F
RHINELANDER    PTCLDY    51  48  89 NW7       30.06R
EAGLE RIVER    CLOUDY    50  49  97 W6        30.03S
LAND O LAKES   CLOUDY    50  48  92 NW6       30.05S
PHILLIPS       MOCLDY    52  46  82 CALM      30.06S
TOMAHAWK       NOT AVBL
MEDFORD        PTCLDY    51  48  90 W6        30.08S
MERRILL        PTCLDY    52  48  86 CALM      30.07S
$$

WIZ029-030-035-036-043>047-260300-
CENTRAL WISCONSIN

CITY           SKY/WX    TMP DP  RH WIND       PRES   REMARKS
WAUSAU         CLEAR     55  47  74 NW7       30.05S
MOSINEE        MOCLDY    54  48  82 NW6       30.07S
MARSHFIELD     CLOUDY    54  46  74 NW8       30.08S
STEVENS POINT  CLEAR     53  51  93 W3        30.07S
WAUPACA        PTCLDY    57  54  89 W6        30.06S
WAUTOMA        PTCLDY    56  54  93 W6        30.08S
WISC RAPIDS    CLOUDY    57  49  74 NW7       30.09S
CAMP DOUGLAS   LGT RAIN  54  52  94 NW6       30.09
$$

WIZ011>013-019>022-031-037>040-048>050-260300-
NORTHEAST WISCONSIN

CITY           SKY/WX    TMP DP  RH WIND       PRES   REMARKS
ANTIGO         CLOUDY    52  48  87 NW12      30.05S
SHAWANO        PTCLDY    58  53  84 W5        30.03S
OCONTO         MOCLDY    57  53  84 W9        30.00S
STURGEON BAY     N/A     58  54  86 SW10        N/A
GREEN BAY      MOCLDY    59  55  87 W7        30.03S
MANITOWOC      MOCLDY    57  52  83 W7        30.03S
APPLETON       MOCLDY    57  54  88 W9        30.04S
CLINTONVILLE   CLEAR     55  48  76 NW8       30.05R
OSHKOSH        MOCLDY    57  53  86 VRB5      30.05S
$$

WIZ032>034-041-042-053>061-260300-
SOUTHWEST WISCONSIN

CITY           SKY/WX    TMP DP  RH WIND       PRES   REMARKS
LA CROSSE      CLEAR     67  47  48 W9        30.10S
SPARTA         CLEAR     55  50  81 CALM      30.10S
VIROQUA        CLEAR     57  48  71 W6        30.11S
BOSCOBEL       CLEAR     61  51  70 CALM      30.12S
PRAIRIE DU CHI PTCLDY    61  46  56 W6        30.12S
PLATTEVILLE    CLEAR     59  49  70 W6        30.13F
$$

WIZ056-057-062-063-064-067-068-260300-
SOUTH CENTRAL WISCONSIN

CITY           SKY/WX    TMP DP  RH WIND       PRES   REMARKS
REEDSBURG      PTCLDY    55  55  99 CALM      30.10S
BARABOO/DELLS  CLOUDY    56  53  91 CALM      30.10S
LONE ROCK      CLEAR     59  49  69 W3        30.10S
MINERAL POINT  CLEAR     59  52  77 W6        30.12S
MADISON        MOCLDY    55  53  93 N3        30.10S
MIDDLETON      PTCLDY    56  53  90 SW3       30.10F
WATERTOWN      NOT AVBL
MONROE         PTCLDY    59  50  72 W8        30.11F
JANESVILLE     MOCLDY    63  48  59 W9        30.10S
$$

WIZ051-052-058>065-066-070>072-260300-
SOUTHEAST WISCONSIN

CITY           SKY/WX    TMP DP  RH WIND       PRES   REMARKS
MILWAUKEE      LGT RAIN  59  55  87 W9        30.07S
WAUKESHA       MOCLDY    55  54  94 W9        30.09F
MILWAUKEE/TIMM CLOUDY    57  50  77 W7        30.08R
RACINE         LGT RAIN  62  48  60 W15G24    30.10R
KENOSHA        CLOUDY    61  50  67 W12G20    30.08S
FOND DU LAC    CLOUDY    59  51  75 W9        30.06S
SHEBOYGAN      MOCLDY    57  55  93 W8        30.04S
WEST BEND      PTCLDY    55  52  88 W8        30.06F
JUNEAU         MOCLDY    55  52  90 SW7       30.09S
$$

LSZ147-162-260300-
LAKE SUPERIOR

STATION/POSITION TIME  TEMP    WIND        PRES    WAVE
                       AIR SEA DIR/SP/G            HT/PER
                 (UTC) (F)     (DEG/KT/KT) (MB)    (FT/S)
W MID LAKE BUOY  0150   43 39  300/  6/  6 1017.3F   0
DEVILS ISLAND    0200   48     330/ 12/ 14 1018.1R
SAXON HARBOR     0140   54     200/  4/  5 1017.3F
$$

LMZ867-665-643>646-260300-
LAKE MICHIGAN

STATION/POSITION TIME  TEMP    WIND        PRES    WAVE
                       AIR SEA DIR/SP/G            HT/PER
                 (UTC) (F)     (DEG/KT/KT) (MB)    (FT/S)
CHAMBERS ISLAND  0130   57     280/  2/  4 1014.9S
S GREEN BAY BUOY 0200   60     260/ 16/ 21 1015.4
N MID LAKE BUOY  0150   58 57  260/  6/  8 1015.6F   2/ 5
NORTHPORT PIER   0140   57     300/  4/  5 1014.9F
KEWAUNEE LAKESHO 0154   57     280/  4/  8 1015.7F
SHEBOYGAN LAKESH 0200   58     270/ 11/ 13 1017.1F
PORT WASHINGTON  0140   61     300/  6/ 11 1018.6R
ATWATER BUOY     0109   61 57  270/ 17/ 25 1018.0R
MILWAUKEE LAKESH 0200   59     290/  6/  8   N/A
S MID LAKE BUOY  0150   63 62  310/ 14/ 16 1017.7F   2/ 4
KENOSHA   LAKESH 0200   63     270/  9/ 13 1018.3
$$

TC  - TEMPERATURE IN CELSIUS
VSB - VISIBILITY IN STATUTE MILES
WCI - WIND CHILL INDEX
HX  - HEAT INDEX





USA.gov is the U.S. government's official web portal to all federal, state and local government web resources and services.